Miscellaneous Local Product
Issued by NWS Hastings, NE

Home | Current Version | Previous Version | Text Only | Print | Product List | Glossary On
Versions: 1 2 3 4 5 6 7 8 9 10 11 12 13 14 15 16 17 18 19 20 21 22 23 24 25 26 27 28 29 30 31 32 33 34 35 36 37 38 39 40 41 42 43 44 45 46 47 48 49 50
000
AXUS43 KGID 212202
MISGRI

GID CWA HOURLY WEATHER ROUNDUP
NATIONAL WEATHER SERVICE HASTINGS NE
500 PM CDT THU AUG 21 2014

NOTE: "FAIR" INDICATES FEW OR NO CLOUDS BELOW 12,000 FEET WITH NO
SIGNIFICANT WEATHER AND/OR OBSTRUCTIONS TO VISIBILITY.

...SOUTH CENTRAL NEBRASKA...

CITY           SKY/WX    TMP DP  RH WIND       PRES   REMARKS
GRAND ISLAND   SUNNY     87  72  60 SE5       29.87S HX  93
HASTINGS       MOSUNNY   86  69  56 NE3       29.86F HX  90
KEARNEY        MOSUNNY   88  72  58 E5        29.88S HX  94
ORD            SUNNY     90  69  50 N3        29.87R HX  94
YORK           MOSUNNY   86 N/A N/A CALM      29.86F
AURORA         SUNNY     86  72  63 CALM      29.87S HX  92
LEXINGTON      SUNNY     89  68  49 CALM      29.89S HX  92
HOLDREGE       SUNNY     87  71  58 E5        29.88R HX  92
HEBRON         MOSUNNY   90  71  53 CALM      29.82F HX  95

...NEBRASKA PANHANDLE...

CITY           SKY/WX    TMP DP  RH WIND       PRES   REMARKS
CHADRON        MOSUNNY   89  54  30 SE13G21   29.93S
ALLIANCE       PTSUNNY   85  49  28 E8        29.99S
SCOTTSBLUFF    MOSUNNY   89  46  22 NW6       30.00S
SIDNEY         MOSUNNY   89  46  22 CALM      30.03S

...WESTERN AND NORTH CENTRAL NEBRASKA...

CITY           SKY/WX    TMP DP  RH WIND       PRES   REMARKS
VALENTINE      SUNNY     89  55  31 E5        29.93S
AINSWORTH      SUNNY     85  59  40 E6        29.92S
ONEILL         SUNNY     87  68  52 N6        29.88S HX  91
BROKEN BOW     SUNNY     89  69  51 N7        29.91R HX  93
IMPERIAL       SUNNY     90  52  27 NW9       29.95S
NORTH PLATTE   SUNNY     89  65  44 SE7       29.91R HX  91
MCCOOK         MOSUNNY   93  53  25 NW3       29.89S HX  90

...EASTERN NEBRASKA...

CITY           SKY/WX    TMP DP  RH WIND       PRES   REMARKS
NORFOLK        PTSUNNY   89  70  53 W3        29.84R HX  94
SO SIOUX CITY  SUNNY     91  75  59 NW5       29.81R HX 101
TEKAMAH        SUNNY     91  71  51 SW10      29.82R HX  97
COLUMBUS       SUNNY     88  73  62 SW6       29.86S HX  96
ALBION         MOSUNNY   88  67  49 CALM      29.86S HX  91
OMAHA EPPLEY   MOSUNNY   92  70  48 SW8       29.83S HX  97
OFFUTT AFB     PTSUNNY   90  75  62 W6        29.83S HX 100
MILLARD        PTSUNNY   90  72  55 W7        29.83S HX  97
LINCOLN        MOSUNNY   89  71  55 CALM      29.85S HX  95
NEBRASKA CITY  CLOUDY    84  75  73 N6        29.83S HX  92
BEATRICE       MOSUNNY   92  74  56 SW7       29.83R HX 102
FALLS CITY     PTSUNNY   94  73  50 S9        29.80S HX 103

...NORTHERN KANSAS...

CITY           SKY/WX    TMP DP  RH WIND       PRES   REMARKS
GOODLAND       SUNNY     95  48  20 N13G18    29.97S HX  91
HILL CITY      SUNNY     98  62  30 VRB5      29.85S HX  99
NORTON         CLEAR     95  52  23 N6        29.85S HX  92
PHILLIPSBURG   SUNNY     97  61  30 S6        29.82S HAZE    HX  97
SMITH CENTER   SUNNY     97  64  34 S10       29.81F HX  99
BELOIT         SUNNY     99  66  34 S13       29.78F HX 102
HAYS           MOSUNNY  100  64  30 S17       29.82F HX 103
RUSSELL        SUNNY     99  65  32 S17G30    29.81F HX 102
CONCORDIA      SUNNY     95  68  41 S18G24    29.81F HX  99
SALINA         SUNNY    100  67  33 S20G30    29.81S HX 105
TOPEKA         SUNNY     99  69  37 S15G23    29.83F HX 105



USA.gov is the U.S. government's official web portal to all federal, state and local government web resources and services.